User: anonymous   Login
Location: Muenchen
(48.1800°N, 11.5800°E)
Time: 09:04:57
(UTC+01:00)
Language:

Sich 1 Rocket - Orbit

View from above orbital plane
View from above orbital plane
View from above satellite
View from above satellite

Ground track
Ground track

The orbit data is extracted from the following two-line orbital elements,

1 23659U 95046C   14353.73941336  .00000634  00000-0  84548-4 0  1034
2 23659 082.5307 070.0982 0024747 334.2028 141.5334 14.77918835 40057
Epoch (UTC): 19 December 2014 17:44:45
Eccentricity: 0.0024747
inclination: 82.5307°
perigee height: 618 km
apogee height: 653 km
right ascension of ascending node: 70.0982°
argument of perigee: 334.2028°
revolutions per day: 14.77918835
mean anomaly at epoch: 141.5334°
orbit number at epoch: 4005

The dashed part of the orbit path shows where the satellite is in the earth's shadow,  

DLR